Regional Weather Roundup
Issued by NWS

Home | Current Version | Previous Version | Graphics & Text | Print | Product List | Glossary On
Versions: 1 2 3 4 5 6 7 8 9 10 11 12 13 14 15 16 17 18 19 20 21 22 23 24 25 26 27 28 29 30 31 32 33 34 35 36 37 38 39 40 41 42 43 44 45 46 47 48 49 50
000
ASUS43 KTOP 050708
RWRKS

WEATHER ROUNDUP FOR KANSAS
NATIONAL WEATHER SERVICE GOODLAND KS
200 AM CDT TUE MAY 05 2015

NOTE:  "FAIR" INDICATES FEW OR NO CLOUDS BELOW 12,000 FEET WITH NO
SIGNIFICANT WEATHER AND/OR OBSTRUCTIONS TO VISIBILITY.

KSZ001>006-013>018-027>032-041>047-050800-
NORTHWEST KANSAS

CITY           SKY/WX    TMP DP  RH WIND       PRES   REMARKS
GOODLAND       CLOUDY    50  48  93 E10       30.08R FOG
HAYS           CLOUDY    59  54  82 SE5       30.05S
HILL CITY      LGT RAIN  58  55  90 E5        30.07S FOG
RUSSELL        LGT RAIN  60  59  96 E10       30.04F
$$

KSZ061>065-074>080-084>089-050800-
SOUTHWEST KANSAS

CITY           SKY/WX    TMP DP  RH WIND       PRES   REMARKS
DODGE CITY     LGT RAIN  59  57  93 E12       30.03F
ELKHART          N/A     56  52  87 NE9         N/A
GARDEN CITY    LGT RAIN  56  55  97 E16G22    30.03R FOG
GREAT BEND     CLOUDY    61  57  88 E10       30.05F
LIBERAL        CLOUDY    61  54  77 NE6       30.02S
PRATT          CLOUDY    64  55  72 E5        30.05F
$$

KSZ066>073-081>083-090>101-050800-
SOUTHEAST KANSAS

CITY           SKY/WX    TMP DP  RH WIND       PRES   REMARKS
CHANUTE        MOCLDY    62  58  86 SE7       30.09F
COFFEYVILLE    PTCLDY    62  55  77 SE6       30.09S
HUTCHINSON     MOCLDY    63  57  81 E8        30.06F
MEDICINE LODGE   N/A     62  57  83 E7        30.02F
NEWTON         MOCLDY    63  54  72 NE6       30.10F
PARSONS        PTCLDY    64  56  75 SE5       30.10F
WICHITA INTL   MOCLDY    65  56  72 SE8       30.05F
WICHITA JABRA  PTCLDY    62  56  80 SE3       30.07F
WICHITA MCCONL PTCLDY    65  57  76 SE6       30.06F
WINFIELD       PTCLDY    63  57  81 SE8       30.07F
$$

KSZ007>012-019>026-033>040-048>060-102>105-050800-
NORTHEAST KANSAS

CITY           SKY/WX    TMP DP  RH WIND       PRES   REMARKS
CONCORDIA      LGT RAIN  61  58  90 E5        30.07F
EMPORIA        MOCLDY    60  57  89 E8        30.08F
LAWRENCE       CLOUDY    62  60  93 SE3       30.08F
MANHATTAN      CLOUDY    60  60 100 CALM      30.07F
MARYSVILLE     LGT RAIN  61  59  94 CALM      30.07F
OLATHE IND     CLOUDY    62  61  96 SE5       30.10F
OLATHE EXE     CLOUDY    62  61  96 CALM      30.09F
SALINA         CLOUDY    63  60  90 E7        30.06F
TOPEKA BILLARD CLOUDY    62  60  93 CALM      30.08F
TOPEKA FORBES  CLOUDY    62  59  90 SE5       30.08F
$$


USA.gov is the U.S. government's official web portal to all federal, state and local government web resources and services.